Tracking 29493 objects as of 9-Sep-2024
HD Live streaming from Space Station
objects crossing your sky now

STARLINK-30838

Track STARLINK-30838 now!
10-day predictions
STARLINK-30838 is classified as:


NORAD ID: 58211
Int'l Code: 2023-170F
Perigee: 565.0 km
Apogee: 567.5 km
Inclination: 43.0 °
Period: 95.8 minutes
Semi major axis: 6937 km
RCS: Unknown
Launch date: November 3, 2023
Source: United States (US)
Launch site: AIR FORCE EASTERN TEST RANGE (AFETR)
Your satellite tracking list
Your tracking list is empty




NASA's NSSDC Master Catalog

Two Line Element Set (TLE):
1 58211U 23170F   24252.40784998  .00001453  00000-0  12263-3 0  9994
2 58211  43.0006 289.7331 0001820 275.9838  84.0797 15.02524273 47959
Source of the keplerian elements: AFSPC